Flag for U.S.A. Weather past 2 weeks in Yonkers, New York, U.S.A.

Now
26 °F

Clear.


Feels Like: 14 °F
Forecast: 11 / 22 °F
Wind: 15 mph from Northwest

Location: Teterboro Airport

Current Time: Jan 30, 2015 at 8:00:55 PM

Latest Report: Jan 30, 2015 at 6:51 PM


Visibility: 10 mi

Pressure: 29.96 "Hg

Humidity: 50%

Dew point: 10 °F

Location of YonkersLocation

Historic Weather in Yonkers — Graph

°F

Yonkers temperature yesterday

Maximum temperature yesterday: 33 °F (at 6:51 PM)
Minimum temperature yesterday: 14 °F (at 3:51 AM)
Average temperature yesterday: 26 °F

Past Weeks' High & Low Weather Summary

 TemperatureHumidityPressure
High42 °F (Jan 16, 12:51 PM)97% (Jan 18, 1:51 PM)30.40 "Hg (Jan 18, 1:51 PM)
Low14 °F (Jan 29, 3:51 AM)26% (Jan 28, 4:51 PM)29.28 "Hg (Jan 24, 3:51 PM)
Average30 °F59%29.97 "Hg
* Reported Jan 15 5:51 PM — Jan 30 5:51 PM, Yonkers, Weather by CustomWeather, © 2014

Note: Actual official high and low records may vary slightly from our data, if they occured in-between our weather recording intervals... More about our weather records

Advertising

Yonkers weather history for previous 24 hours

 ConditionsComfort  
Time TempWeatherWind HumidityBarometerVisibility
5:51 PM
Jan 30
30 °FPassing clouds.18 mph49%29.92 "Hg10 mi
4:51 PM34 °FPartly sunny.22 mph48%29.88 "Hg10 mi
3:51 PM36 °FScattered clouds.20 mph44%29.85 "Hg10 mi
2:51 PM37 °FPassing clouds.14 mph44%29.83 "Hg10 mi
1:51 PM37 °FOvercast.17 mph50%29.82 "Hg10 mi
12:51 PM37 °FMostly cloudy.18 mph50%29.83 "Hg10 mi
11:51 AM36 °FMore clouds than sun.12 mph62%29.85 "Hg10 mi
10:51 AM34 °FLight snow. Overcast.10 mph73%29.86 "Hg9 mi
9:51 AM32 °FLight snow. Ice fog.9 mph79%29.87 "Hg8 mi
8:51 AM31 °FLight snow. Ice fog.6 mph82%29.88 "Hg2 mi
7:51 AM31 °FLight snow. Ice fog.3 mph79%29.85 "Hg5 mi
6:51 AM31 °FLight snow. Ice fog.5 mph89%29.84 "Hg6 mi
5:51 AM31 °FLight snow. Ice fog.5 mph89%29.85 "Hg6 mi
4:51 AM32 °FLight snow. Ice fog.No wind88%29.85 "Hg8 mi
3:51 AM31 °FLight snow. Ice fog.No wind89%29.86 "Hg7 mi
2:51 AM31 °FSnow. Ice fog.No wind92%29.90 "Hg3 mi
1:51 AM31 °FLight snow. Ice fog.6 mph89%29.93 "Hg1 mi
12:53 AM30 °FSnow. Ice fog.6 mph93%29.96 "Hg1 mi
11:51 PM
Jan 29
30 °FLight snow. Ice fog.7 mph89%29.99 "Hg1 mi
10:51 PM32 °FLight snow. Overcast.5 mph73%30.02 "Hg10 mi
9:51 PM32 °FOvercast.7 mph69%30.05 "Hg10 mi
8:51 PM33 °FMostly cloudy.3 mph63%30.04 "Hg10 mi
Weather by CustomWeather, © 2014

See weather overviewHow to use our weather pages